Location: Oberkirch
(48.5323°N, 8.0787°E)
Time: 08:39:14
(UTC+00:00)

Transit 2A Rocket - All Passes

Search period start: 17 February 2026 00:00
Search period end: 27 February 2026 00:00
Orbit: 582 x 901 km, 66.7° (Epoch: 16 February)

Date Brightness Start Highest point End Pass type
(mag) Time Alt. Az. Time Alt. Az. Time Alt. Az.
17 Feb - 01:34:47 10° NW 01:39:04 24° WSW 01:43:04 10° SSW night (unlit)
17 Feb - 14:28:07 10° SSE 14:32:38 23° ESE 14:37:09 10° ENE daylight
17 Feb - 16:08:27 10° SW 16:14:30 79° NW 16:20:30 10° NE daylight
17 Feb - 17:52:58 10° W 17:57:49 24° NNW 18:02:34 10° NNE visible
17 Feb - 19:39:45 10° NW 19:42:23 13° N 19:45:00 10° NNE visible
17 Feb - 21:23:53 10° NNW 21:27:19 16° NNE 21:30:36 10° NE visible
17 Feb - 23:06:01 10° NNW 23:11:20 41° NE 23:16:13 10° ESE visible
18 Feb - 00:48:38 10° NW 00:53:46 41° WSW 00:58:27 10° S night (unlit)
18 Feb - 13:44:50 10° SE 13:47:28 13° ESE 13:50:05 10° ENE daylight
18 Feb - 15:22:53 10° SSW 15:28:52 68° ESE 15:34:49 10° NE daylight
18 Feb - 17:06:21 10° WSW 17:11:45 33° NW 17:17:03 10° NNE daylight
18 Feb - 18:52:46 10° NW 18:56:00 15° NNW 18:59:09 10° NNE visible
18 Feb - 20:38:09 10° NNW 20:40:57 13° N 20:43:40 10° NE visible
18 Feb - 22:20:28 10° NNW 22:25:20 28° NE 22:29:52 10° E visible
19 Feb - 00:02:46 10° NW 00:08:18 71° WSW 00:13:18 10° SSE night (unlit)
19 Feb - 01:48:06 10° W 01:49:31 11° W 01:50:54 10° WSW night (unlit)
19 Feb - 14:37:46 10° S 14:43:22 42° ESE 14:48:58 10° NE daylight
19 Feb - 16:20:00 10° WSW 16:25:49 47° NW 16:31:32 10° NNE daylight
19 Feb - 18:05:44 10° WNW 18:09:41 18° NNW 18:13:32 10° NNE visible
19 Feb - 19:52:07 10° NNW 19:54:32 12° N 19:56:54 10° NNE visible
19 Feb - 21:34:57 10° NNW 21:39:13 21° NNE 21:43:14 10° ENE visible
19 Feb - 23:17:05 10° NNW 23:22:40 72° NE 23:27:43 10° SE visible
20 Feb - 01:00:32 10° WNW 01:04:24 20° WSW 01:08:01 10° SSW night (unlit)
20 Feb - 13:53:09 10° SSE 13:58:00 26° ESE 14:02:51 10° NE daylight
20 Feb - 15:33:58 10° SW 15:40:00 70° NW 15:45:58 10° NNE daylight
20 Feb - 17:18:48 10° W 17:23:27 22° NNW 17:27:59 10° NNE visible
20 Feb - 19:05:36 10° NNW 19:08:06 13° N 19:10:33 10° NNE visible
20 Feb - 20:49:23 10° NNW 20:52:58 17° NNE 20:56:24 10° ENE visible
20 Feb - 22:31:29 10° NNW 22:36:53 46° NE 22:41:47 10° ESE visible
21 Feb - 00:14:14 10° NW 00:19:09 35° WSW 00:23:38 10° S night (unlit)
21 Feb - 13:09:25 10° SE 13:12:47 15° ESE 13:16:09 10° ENE daylight
21 Feb - 14:48:18 10° SSW 14:54:20 77° ESE 15:00:18 10° NE daylight
21 Feb - 16:32:06 10° W 16:37:20 30° NW 16:42:29 10° NNE daylight
21 Feb - 18:18:42 10° NW 18:21:41 14° NNW 18:24:38 10° NNE visible
21 Feb - 20:03:43 10° NNW 20:06:38 14° NNE 20:09:27 10° NE visible
21 Feb - 21:45:56 10° NNW 21:50:55 31° NE 21:55:32 10° E visible
21 Feb - 23:28:19 10° NW 23:33:44 60° WSW 23:38:37 10° SSE visible
22 Feb - 14:03:03 10° S 14:08:47 48° ESE 14:14:30 10° NE daylight
22 Feb - 15:45:39 10° WSW 15:51:22 42° NW 15:56:58 10° NNE daylight
22 Feb - 17:31:38 10° WNW 17:35:20 17° NNW 17:38:57 10° NNE visible
22 Feb - 19:17:47 10° NNW 19:20:14 13° N 19:22:36 10° NNE visible
22 Feb - 21:00:25 10° NNW 21:04:49 23° NNE 21:08:58 10° E visible
22 Feb - 22:42:34 10° NW 22:48:08 82° NE 22:53:09 10° SE visible
23 Feb - 00:26:22 10° WNW 00:29:43 17° WSW 00:32:53 10° SW night (unlit)
23 Feb - 13:18:16 10° S 13:23:23 30° ESE 13:28:29 10° NE daylight
23 Feb - 14:59:31 10° SW 15:05:31 62° NW 15:11:24 10° NNE daylight
23 Feb - 16:44:39 10° WNW 16:49:04 21° NNW 16:53:24 10° NNE daylight
23 Feb - 18:31:25 10° NNW 18:33:47 12° N 18:36:06 10° NNE visible
23 Feb - 20:14:52 10° NNW 20:18:37 18° NNE 20:22:11 10° ENE visible
23 Feb - 21:56:56 10° NNW 22:02:23 51° NE 22:07:20 10° SE visible
23 Feb - 23:39:52 10° NW 23:44:30 30° WSW 23:48:46 10° S night (unlit)
24 Feb - 12:34:12 10° SE 12:38:07 18° ESE 12:42:01 10° ENE daylight
24 Feb - 14:13:45 10° SSW 14:19:48 87° ESE 14:25:46 10° NE daylight
24 Feb - 15:57:52 10° W 16:02:57 27° NW 16:07:54 10° NNE daylight
24 Feb - 17:44:35 10° NW 17:47:22 13° N 17:50:05 10° NNE visible
24 Feb - 19:29:15 10° NNW 19:32:18 14° NNE 19:35:14 10° NE visible
24 Feb - 21:11:23 10° NNW 21:16:29 34° NE 21:21:09 10° ESE visible
24 Feb - 22:53:51 10° NW 22:59:07 51° WSW 23:03:54 10° SSE visible
25 Feb - 13:28:21 10° SSW 13:34:13 56° ESE 13:40:02 10° NE daylight
25 Feb - 15:11:20 10° WSW 15:16:55 38° NW 15:22:23 10° NNE daylight
25 Feb - 16:57:33 10° NW 17:01:00 16° NNW 17:04:22 10° NNE daylight
25 Feb - 18:43:26 10° NNW 18:45:54 13° N 18:48:19 10° NNE visible
25 Feb - 20:25:52 10° NNW 20:30:26 25° NNE 20:34:40 10° E visible
25 Feb - 22:08:04 10° NW 22:13:35 86° WSW 22:18:33 10° SSE visible
25 Feb - 23:52:19 10° WNW 23:55:00 14° WSW 23:57:34 10° SW night (unlit)
26 Feb - 12:43:25 10° S 12:48:46 34° ESE 12:54:05 10° NE daylight
26 Feb - 14:25:06 10° SW 14:31:02 55° NW 14:36:50 10° NNE daylight
26 Feb - 16:10:30 10° WNW 16:14:43 19° NNW 16:18:48 10° NNE daylight
26 Feb - 17:57:12 10° NNW 17:59:28 12° N 18:01:42 10° NNE visible
26 Feb - 19:40:20 10° NNW 19:44:14 19° NNE 19:47:56 10° ENE visible
26 Feb - 21:22:25 10° NNW 21:27:52 59° NE 21:32:49 10° SE visible
26 Feb - 23:05:32 10° NW 23:09:50 25° WSW 23:13:49 10° SSW visible
